Location: Unspecified
(0.0000°N, 0.0000°E)
Time: 07:14:35
(UTC+00:00)

Tiangong 2 - Pass Details

Date: 19 May 2017
Orbit: 391 x 396 km, 42.8° (Epoch: 28 June)

Event Time Altitude Azimuth Distance (km) Brightness Sun altitude
Rises 19:23:48 0° 238° (WSW) 2,274 5.5 -20.4°
Reaches altitude 10° 19:25:59 10° 247° (WSW) 1,416 4.5 -21.0°
Maximum altitude 19:28:55 34° 314° (NW) 660 2.7 -21.6°
Enters shadow 19:30:17 23° 2° (N) 876 3.0 -22.0°
